Skip Page Navigation
NASA JPL Caltech
NASA Logo - Jet Propulsion Laboratory + View the NASA Portal
+ Center for Near-Earth Object Studies
JPL Home Earth Solar System Stars & Galaxies Technology
JPL Solar System Dynamics
BODIES ORBITS EPHEMERIDES TOOLS PHYSICAL DATA DISCOVERY FAQ SITE MAP
JPL Small-Body Database Browser
Search: [ help ]  
(2014 GG49)
Classification: Apollo [NEO]          SPK-ID: 3667484
Ephemeris | Orbit Diagram | Orbital Elements | Mission Design | Physical Parameters | Close-Approach Data ]

[ hide orbit diagram ]

For accurate long-term ephemerides, please instead use our Horizons system.This orbit viewer was implemented using two-body methods, and hence should not be used for determining accurate long-term trajectories (over several years or decades) or planetary encounter circumstances.


Orbital Elements at Epoch 2459200.5 (2020-Dec-17.0) TDB
Reference: JPL 16 (heliocentric ecliptic J2000)
 Element Value Uncertainty (1-sigma)   Units 
e .4056359932179001 0.00055779  
a 1.401225493310007 0.00097085 au
q .8328379986089602 0.00020456 au
i 4.324434117922355 0.0049734 deg
node 35.36380568338969 9.4808e-05 deg
peri 239.9721039185331 0.0069526 deg
M 336.3773589274196 1.621 deg
tp 2459240.254511612190
(2021-Jan-25.75451161)
2.7693 TDB
period 605.8435268273333
1.66
0.62965
0.001724
d
yr
n .5942128355901387 0.00061756 deg/d
Q 1.969612988011054 0.0013647 au
  Orbit Determination Parameters
   # obs. used (total)      44  
   data-arc span      10 days  
   first obs. used      2014-04-09  
   last obs. used      2014-04-19  
   planetary ephem.      DE441  
   SB-pert. ephem.      SB441-N16  
   condition code      7  
   norm. resid. RMS      .4505  
   source      ORB  
   producer      Otto Matic  
   solution date      2021-Apr-15 09:45:27  

Additional Information
 Earth MOID = .0078578 au 
 Jupiter MOID = 3.16911 au 
 T_jup = 4.659 
[ show covariance matrix ]

Ephemeris | Orbit Diagram | Orbital Elements | Mission Design | Physical Parameters | Close-Approach Data ]

Physical Parameter Table
Parameter Symbol Value Units Sigma Reference Notes
absolute magnitude H 25.7   n/a MPO294934  

[ show close-approach data ]
Ephemeris | Orbit Diagram | Orbital Elements | Mission Design | Physical Parameters | Close-Approach Data ]
ABOUT SSD CREDITS/AWARDS PRIVACY/COPYRIGHT GLOSSARY LINKS
FirstGov 2021-Apr-17 14:34 UT
(server date/time)  
NASA Home Page
Site Manager:   Ryan S. Park
Webmaster  Alan B. Chamberlin